Location: Savageville
(44.2117°N, 71.8937°W)
Time: 13:04:36
(UTC+00:00)

Envisat - Visible Passes

Search period start: 13 October 2024 00:00
Search period end: 23 October 2024 00:00
Orbit: 762 x 764 km, 98.3° (Epoch: 12 October)

Date Brightness Start Highest point End Pass type
(mag) Time Alt. Az. Time Alt. Az. Time Alt. Az.
13 Oct 4.1 08:09:58 10° N 08:12:53 35° N 08:12:53 35° N visible
13 Oct 4.9 09:51:30 10° NW 09:53:01 12° NW 09:53:01 12° NW visible
14 Oct 5.0 07:32:37 10° NNE 07:34:49 25° NE 07:34:49 25° NE visible
14 Oct 4.4 09:12:13 10° NNW 09:14:57 21° NW 09:14:57 21° NW visible
15 Oct 5.8 06:55:52 10° NE 06:56:45 14° NE 06:56:45 14° NE visible
15 Oct 4.2 08:34:06 10° N 08:36:53 30° NNW 08:36:53 30° NNW visible
16 Oct 4.6 07:56:27 10° NNE 07:58:49 28° NNE 07:58:49 28° NNE visible
16 Oct 4.8 09:37:03 10° NNW 09:38:57 14° NW 09:38:57 14° NW visible
17 Oct 5.4 07:19:16 10° NNE 07:20:45 18° NE 07:20:45 18° NE visible
17 Oct 4.4 08:58:25 10° N 09:00:53 23° NNW 09:00:53 23° NNW visible
18 Oct 4.5 08:20:29 10° N 08:22:49 27° N 08:22:49 27° N visible
19 Oct 5.1 07:42:59 10° NNE 07:44:44 22° NNE 07:44:44 22° NNE visible
19 Oct 4.7 09:23:00 10° NNW 09:24:52 17° NW 09:24:52 17° NW visible
20 Oct 5.8 07:06:01 10° NE 07:06:39 13° NE 07:06:39 13° NE visible
20 Oct 4.6 08:44:41 10° N 08:46:48 23° NNW 08:46:48 23° NNW visible
21 Oct 4.9 08:06:54 10° NNE 08:08:43 23° N 08:08:43 23° N visible
21 Oct 5.0 09:48:13 10° NW 09:48:51 11° NW 09:48:51 11° NW visible
22 Oct 5.5 07:29:34 10° NNE 07:30:38 16° NNE 07:30:38 16° NNE visible
22 Oct 4.8 09:09:05 10° N 09:10:46 18° NNW 09:10:46 18° NNW visible
